cover

 

Get it on iTunes StoreListen on Apple Music

Lost In Space

#Trackname / Key / BPM / Publish dateArtists, Remixers / Label
1 140 bpm, 11A / F# minor, 2018-09-17, Psy-Trance,  0  10
2 145 bpm, 7A / D minor, 2018-09-16, Psy-Trance,  0  1
3 145 bpm, 7A / D minor, 2018-09-02, Psy-Trance,  0  1
4 145 bpm, 9B / G major, 2018-08-19, Psy-Trance,  0  1
5 145 bpm, 9B / G major, 2018-08-05, Psy-Trance,  0  1
6 138 bpm, 2A / Eb minor, 2018-07-19, Psy-Trance,  0  1
7 138 bpm, 7A / D minor, 2018-07-16, Psy-Trance,  0  1
8 145 bpm, 7A / D minor, 2018-06-20, Psy-Trance,  0  25
9 145 bpm, 7A / D minor, 2018-01-12, Psy-Trance,  0  1
10 140 bpm, 7A / D minor, 2017-12-15, Psy-Trance,  0  1
11 140 bpm, 12B / E major, 2017-12-01, Psy-Trance,  0  18
12 140 bpm, 12B / E major, 2017-10-02, Psy-Trance,  1  1
13 140 bpm, 6B / Bb major, 2017-09-08, Psy-Trance,  0  25
14 140 bpm, 10B / D major, 2017-08-23, Psy-Trance,  0  1
15 140 bpm, 7B / F major, 2017-07-25, Psy-Trance,  0  1
16 147 bpm, 1A / Ab minor, 2017-07-17, Psy-Trance,  0  14
17 145 bpm, 7A / D minor, 2017-06-09, Psy-Trance,  0  9
18 145 bpm, 5B / Eb major, 2017-05-29, Psy-Trance,  0  25
19 140 bpm, 6B / Bb major, 2017-05-25, Psy-Trance,  0  2
20 140 bpm, 7A / D minor, 2017-05-25, Psy-Trance,  0  2
21 140 bpm, 6A / G minor, 2017-05-01, Psy-Trance,  0  2
22 142 bpm, 1B / B major, 2017-05-01, Psy-Trance,  0  2
23 135 bpm, 7B / F major, 2017-04-20, Psy-Trance,  0  2
24 135 bpm, 12B / E major, 2017-04-20, Psy-Trance,  0  2
25 144 bpm, 5B / Eb major, 2017-03-27, Psy-Trance,  0  25
26 144 bpm, 12B / E major, 2017-03-15, Psy-Trance,  1  1
27 145 bpm, 5B / Eb major, 2017-02-01, Psy-Trance,  1  1
28 145 bpm, 5B / Eb major, 2017-01-11, Psy-Trance,  2  1
29 142 bpm, 10A / B minor, 2016-12-12, Psy-Trance,  0  10
30 140 bpm, 9B / G major, 2016-11-18, Psy-Trance,  0  18
31 144 bpm, 5B / Eb major, 2016-11-15, Psy-Trance,  0  1
32 145 bpm, 5B / Eb major, 2016-10-07, Psy-Trance,  0  1
33 140 bpm, 6A / G minor, 2016-09-19, Psy-Trance,  0  2
34 140 bpm, 7A / D minor, 2016-09-19, Psy-Trance,  0  2
35 140 bpm, 7A / D minor, 2016-09-15, Psy-Trance,  0  25
36 147 bpm, 1A / Ab minor, 2016-08-01, Psy-Trance,  0  1
37 140 bpm, 12B / E major, 2016-06-21, Psy-Trance,  0  2
38 140 bpm, 12B / E major, 2016-06-17, Psy-Trance,  0  3
39 140 bpm, 8A / A minor, 2016-06-17, Psy-Trance,  0  3
40 140 bpm, 8A / A minor, 2016-06-17, Psy-Trance,  0  3
41 140 bpm, 8A / A minor, 2016-06-03, Psy-Trance,  0  1
42 140 bpm, 12B / E major, 2016-05-31, Psy-Trance,  0  1
43 138 bpm, 9B / G major, 2016-05-16, Psy-Trance,  0  4
44 138 bpm, 10B / D major, 2016-05-16, Psy-Trance,  0  4
45 140 bpm, 7A / D minor, 2016-05-16, Psy-Trance,  0  4
46 138 bpm, 6A / G minor, 2016-05-16, Psy-Trance,  0  4
47 140 bpm, 7A / D minor, 2016-05-02, Psy-Trance,  1  2
48 93 bpm, 6A / G minor, 2016-05-02, Psy-Trance,  1  2
49 140 bpm, 7A / D minor, 2016-02-15, Psy-Trance,  0  2
50 138 bpm, 10B / D major, 2016-02-15, Psy-Trance,  1  2
51 138 bpm, 12B / E major, 2015-06-15, Psy-Trance,  0  2
52 138 bpm, 10A / B minor, 2015-06-15, Psy-Trance,  0  2
53 124 bpm, 2B / F# major, 2014-03-24, Techno,  0  6
54 130 bpm, 3A / Bb minor, 2011-04-29 (2011-05-06), Techno,  1  6
55 187 bpm, 10B / D major, 2010-11-15, Dubstep,  0  4
56 153 bpm, 6B / Bb major, 2006-11-22, Trance,  0  6
×

Sign in

Sign in to access your personalized pages, follow artists and labels you love, and create playlists fromyour favorite tracks.

Please wait...